Logan, UT

10:40 AM MST on December 17, 2017 (GMT -0700)
Logan-Cache

Weather History for KLGU - June, 2014

Change the Weather History Date:

Saturday, June 7, 2014

  Actual Average Record
Temperature  
Mean Temperature 60 °F -  
Max Temperature 81 °F 76 °F 93 °F (2006)
Min Temperature 39 °F 46 °F 32 °F (1962)
Degree Days  
Heating Degree Days 5    
Growing Degree Days 10 (Base 50)    
Moisture  
Dew Point 34 °F    
Average Humidity 37    
Maximum Humidity 79    
Minimum Humidity 14    
Precipitation  
Precipitation 0.00 in - - ()
Sea Level Pressure  
Sea Level Pressure 29.85 in    
Wind  
Wind Speed 4 mph (NNE)    
Max Wind Speed 12 mph    
Max Gust Speed -    
Visibility 10 miles    
Events      
Averages and records for this station are not official NWS values.
T = Trace of Precipitation, MM = Missing Value Source: NWS Daily Summary

Daily Weather History Graph

Daily Weather History Graph

Search for Another Location

Airport or City:

Trip Planner

Search our weather history database for the weather conditions in past years. The results will help you decide how hot, cold, wet, or windy it might be!

Date:

Astronomy

Jun. 07, 2014 Rise Set
Actual Time 5:52 AM MDT 9:00 PM MDT
Civil Twilight 5:19 AM MDT 9:33 PM MDT
Nautical Twilight 4:35 AM MDT 10:17 PM MDT
Astronomical Twilight 3:44 AM MDT 11:09 PM MDT
Moon 3:16 PM MDT (6/7) 2:21 AM MDT (6/7)
Length of Visible Light 16h 14m
Length of Day
15h 07m
Waxing Gibbous, 68% of the Moon is Illuminated
Jun 7
Waxing Gibbous
Jun 12
Full
Jun 19
Last Quarter
Jun 27
New
Jul 5
First Quarter

Hourly Weather History & Observations

Time (MDT) Temp. Windchill Dew Point Humidity Pressure Visibility Wind Dir Wind Speed Gust Speed Precip Events Conditions
12:51 AM 55.0 °F - 42.1 °F 62% 29.84 in 10.0 mi Variable 3.5 mph - N/A   Clear
1:51 AM 48.0 °F - 37.9 °F 68% 29.86 in 10.0 mi NNE 3.5 mph - N/A   Clear
3:51 AM 51.1 °F - 36.0 °F 56% 29.86 in 10.0 mi Calm Calm - N/A   Clear
4:51 AM 39.9 °F 35.8 °F 34.0 °F 79% 29.89 in 10.0 mi North 5.8 mph - N/A   Clear
8:51 AM 57.9 °F - 36.0 °F 44% 29.92 in 10.0 mi Calm Calm - N/A   Clear
9:51 AM 63.0 °F - 34.0 °F 34% 29.91 in 10.0 mi Calm Calm - N/A   Clear
10:51 AM 66.0 °F - 32.0 °F 28% 29.91 in 10.0 mi Calm Calm - N/A   Clear
11:51 AM 72.0 °F - 32.0 °F 23% 29.88 in 10.0 mi Variable 4.6 mph - N/A   Clear
12:51 PM 75.9 °F - 28.0 °F 17% 29.87 in 10.0 mi Variable 3.5 mph - N/A   Clear
1:51 PM 78.1 °F - 27.0 °F 15% 29.87 in 10.0 mi SW 8.1 mph - N/A   Clear
2:51 PM 80.1 °F - 26.1 °F 14% 29.83 in 10.0 mi Calm Calm - N/A   Clear
4:51 PM 80.1 °F - 27.0 °F 14% 29.83 in 10.0 mi ENE 4.6 mph - N/A   Clear
5:51 PM 81.0 °F - 33.1 °F 18% 29.80 in 10.0 mi North 11.5 mph - N/A   Clear
6:51 PM 79.0 °F - 30.9 °F 17% 29.80 in 10.0 mi North 10.4 mph - N/A   Clear
7:51 PM 68.0 °F - 39.9 °F 36% 29.82 in 10.0 mi North 9.2 mph - N/A   Clear
8:51 PM 63.0 °F - 41.0 °F 45% 29.82 in 10.0 mi North 8.1 mph - N/A   Clear
9:51 PM 64.0 °F - 37.0 °F 37% 29.83 in 10.0 mi Calm Calm - N/A   Clear
10:51 PM 60.1 °F - 37.9 °F 44% 29.86 in 10.0 mi NE 4.6 mph - N/A   Clear
11:51 PM 59.0 °F - 37.9 °F 46% 29.84 in 10.0 mi East 3.5 mph - N/A   Clear